Temperature
16 16 17 17 14 13 14 15 17 18 19 21 21 21 19 19 19 19 18 18 18 18 18 17 17 17 17 17 17 17 17 17 17 17 17 16 16 16 16 16 16 16 16 16 16 15 15 15 15
16 16 16 16 13 14 14 15 17 18 20 21 21 20 18 18 18 18 18 18 18 18 18 17 17 17 17 17 17 17 17 16 17 16 16 16 16 16 16 16 16 16 16 16 16 15 15 15 15
15 16 16 12 13 14 15 16 17 19 21 21 19 19 18 17 18 18 18 18 18 18 17 17 17 17 17 17 17 17 16 16 16 16 16 16 16 16 16 15 16 16 16 16 15 15 15 15 15
15 15 14 12 13 14 15 17 17 18 20 20 18 17 17 17 18 18 18 18 17 17 17 17 17 17 17 17 17 16 16 16 16 16 16 16 16 16 16 16 15 15 15 15 15 15 15 15 15
14 14 12 12 13 14 15 17 18 17 17 18 17 16 16 17 17 18 18 17 17 17 17 17 17 17 17 16 16 16 16 16 16 16 16 16 16 16 16 15 15 15 15 15 15 15 14 14 14
14 12 11 12 13 14 15 16 17 16 17 17 16 15 16 17 17 17 17 17 17 17 16 16 16 16 16 16 16 16 16 16 16 15 15 15 15 15 15 15 15 15 15 15 14 14 14 14 14
12 10 11 12 13 14 15 16 16 15 15 16 16 15 15 16 16 17 17 17 17 16 16 16 16 16 16 16 16 16 16 16 15 15 15 15 15 15 15 15 15 15 15 14 14 14 14 14 14
12 10 11 12 12 13 15 16 16 16 15 16 16 14 14 15 16 16 16 16 16 16 16 16 15 15 16 15 15 15 15 15 15 15 15 15 15 15 15 15 14 14 14 14 14 14 14 14 14
12 9 10 11 12 13 14 14 15 15 15 15 15 15 15 15 15 15 15 15 15 15 15 15 15 15 15 15 15 15 15 15 15 15 15 15 15 15 15 14 14 14 14 14 14 14 14 13 13
11 9 10 12 12 13 13 14 14 14 14 13 14 14 14 14 15 15 15 15 15 15 15 15 15 15 15 15 15 15 15 15 15 15 15 15 15 15 14 14 14 14 14 14 13 13 13 13 13
9 9 10 11 12 13 13 13 14 13 12 13 13 13 13 14 14 14 14 14 14 14 14 14 14 14 14 15 14 14 15 15 15 15 14 14 14 14 14 14 14 14 14 14 13 13 13 13 13
9 9 10 11 12 12 12 12 12 13 13 14 14 13 13 13 13 13 14 14 14 14 14 14 14 14 14 14 14 14 14 14 14 14 14 14 14 14 14 14 14 14 14 13 13 13 13 13 13
8 9 10 10 11 11 11 11 11 12 13 13 13 13 13 12 13 13 13 13 13 13 13 13 13 14 14 14 14 14 14 14 14 14 14 14 14 14 14 14 14 13 13 13 13 13 13 13 12
8 9 9 10 10 11 11 11 11 11 12 12 12 12 12 12 12 12 13 13 13 13 13 13 13 13 13 13 13 14 14 14 14 14 14 14 13 13 13 13 13 13 13 13 13 13 12 12 12
9 8 8 9 10 10 11 10 10 11 11 11 11 11 11 12 12 12 12 12 13 13 13 13 13 13 13 13 13 13 13 13 13 13 13 13 13 13 13 13 13 13 13 13 13 12 12 12 12
7 7 7 8 9 10 10 9 10 11 11 10 10 11 11 11 11 11 12 12 12 12 12 12 12 12 12 12 13 13 13 13 13 13 13 13 13 13 13 13 13 13 12 12 12 12 12 12 12
6 6 7 8 9 9 9 9 9 10 10 10 10 10 10 11 11 11 11 11 11 12 12 12 12 12 12 12 12 12 12 12 12 12 12 12 13 12 12 13 12 12 12 12 12 12 12 11 11
6 6 7 7 8 8 8 8 8 9 10 9 9 10 10 10 10 11 11 11 11 11 11 11 11 12 11 11 12 12 12 12 12 12 12 12 12 12 12 12 12 12 12 12 12 11 11 11 11
6 6 7 7 8 8 8 8 8 8 9 8 9 9 9 10 10 10 10 11 11 11 11 11 11 11 11 11 11 11 11 11 11 11 12 12 12 11 11 12 12 12 12 12 11 11 11 11 11
6 6 6 7 8 8 7 7 7 8 8 8 9 9 9 9 9 10 10 10 10 10 10 11 10 11 11 11 11 11 11 11 11 11 11 11 11 11 11 11 11 11 11 11 11 11 11 11 10
6 6 6 6 7 7 7 7 7 8 8 8 8 9 9 9 9 9 9 10 10 10 10 10 10 10 10 10 10 10 10 10 10 10 10 10 11 11 11 11 11 11 11 11 11 11 11 11 10
6 7 7 7 6 6 7 6 7 7 7 8 8 8 8 9 9 9 9 9 10 10 10 10 10 10 10 10 10 10 10 10 10 10 10 10 10 10 10 10 10 11 11 11 11 11 10 10 10
6 7 7 6 6 5 6 6 6 7 7 7 7 8 8 9 9 9 9 9 10 10 10 10 10 10 10 10 10 10 10 10 10 9 9 10 10 10 10 10 10 10 10 10 10 10 10 10 10
6 6 6 5 4 5 6 6 6 6 7 7 7 7 8 8 9 9 9 9 9 9 9 9 9 9 9 9 9 9 9 9 9 9 9 9 9 9 9 9 9 9 9 9 9 9 9 9 9
5 4 4 4 4 5 6 6 6 7 7 7 7 7 8 8 8 8 9 9 9 9 9 9 9 9 9 9 9 9 9 9 9 9 8 8 9 9 9 9 9 9 9 9 9 9 9 9 9
4 4 4 5 5 5 5 6 6 6 7 7 7 7 7 8 8 8 8 8 8 8 9 9 9 9 8 9 9 9 9 8 8 8 8 8 8 8 8 8 8 8 8 8 8 8 8 8 8
4 4 4 4 4 4 5 5 5 6 6 6 6 6 7 7 8 8 8 8 8 8 8 8 8 8 8 8 8 8 8 8 8 8 8 8 8 8 8 8 8 8 7 7 7 7 7 7 7
4 4 3 3 4 5 5 5 5 5 5 5 5 5 6 7 7 7 7 8 8 8 8 8 8 8 8 8 8 8 8 8 7 7 7 7 7 7 7 7 7 7 7 7 7 7 6 6 7
3 3 3 2 3 4 5 5 5 5 5 5 4 5 6 6 7 7 7 7 7 7 7 8 8 8 8 8 8 7 7 7 7 7 7 6 7 6 6 6 6 6 6 6 6 6 6 6 6
3 3 2 3 2 2 3 5 5 4 4 5 5 5 5 6 6 6 6 7 7 7 7 7 7 7 7 7 7 7 7 7 6 6 6 6 6 6 6 6 6 6 6 6 5 5 5 5 5
Wind_Speed
12 9 2 3 5 3 4 5 4 3 2 2 1 5 7 4 3 4 3 8 11 13 15 17 17 16 16 16 16 15 14 14 14 14 14 14 15 14 14 14 14 14 14 14 15 15 15 15 15
8 3 4 4 4 3 5 6 6 6 4 1 3 4 5 3 3 6 5 8 13 14 15 16 17 16 16 16 16 15 14 14 14 14 13 14 14 14 14 14 14 14 14 14 14 14 14 14 13
5 1 3 3 4 8 6 5 7 5 3 0 3 4 4 3 4 4 5 11 12 11 13 16 18 17 17 16 15 15 14 14 14 13 13 13 14 14 13 13 13 13 13 13 13 13 13 12 12
2 3 3 2 7 6 6 3 2 2 3 2 4 4 3 1 3 4 10 12 12 9 13 15 17 17 17 16 15 15 14 14 13 13 12 13 13 13 13 13 13 13 12 12 12 12 11 11 12
3 3 2 4 8 4 4 3 2 1 1 2 3 4 2 4 6 11 12 12 12 9 11 15 16 16 16 16 15 15 14 14 13 13 12 12 13 12 12 12 12 12 12 11 11 11 11 11 11
2 3 4 7 7 4 3 3 1 1 1 1 3 3 1 2 8 10 11 11 10 10 9 12 14 14 15 15 15 15 14 14 13 12 12 12 12 12 11 11 11 11 10 10 10 10 10 10 10
3 3 5 5 4 4 4 2 1 1 1 1 2 4 2 2 4 7 10 11 10 10 9 9 11 12 13 13 13 14 14 14 13 12 12 11 11 11 11 10 11 11 10 10 10 9 9 9 9
3 2 3 4 5 5 3 1 1 1 2 1 2 6 4 4 4 7 9 10 9 8 7 7 8 9 10 11 11 11 12 12 12 11 11 11 10 10 10 10 10 10 10 9 10 9 8 8 8
2 1 6 6 5 4 1 1 3 1 2 2 1 2 4 6 8 9 9 8 8 7 5 6 6 7 8 9 10 10 10 11 10 10 11 10 8 8 8 9 9 9 9 9 9 8 7 6 6
2 4 7 3 2 2 2 2 2 1 2 2 3 3 5 7 9 11 10 9 8 7 6 5 5 5 6 7 8 8 8 8 9 9 9 8 8 8 8 9 9 9 9 8 8 7 6 5 4
2 5 4 3 2 2 3 4 2 2 2 3 3 4 5 7 7 9 8 8 8 8 7 5 5 5 5 5 6 6 6 7 7 8 8 8 7 7 7 7 7 7 7 6 5 5 4 4 4
2 4 4 4 3 2 4 3 2 3 6 5 7 9 7 7 7 8 9 7 6 7 6 6 5 5 4 5 4 5 5 5 5 6 7 8 6 5 5 5 6 6 5 5 4 3 3 3 4
4 4 5 6 5 4 3 4 4 5 5 3 6 8 8 7 6 5 7 7 7 6 5 6 5 5 4 4 4 4 4 4 5 6 6 7 5 4 4 4 5 5 6 5 4 4 4 3 3
3 3 5 5 6 5 4 6 4 6 3 4 7 7 6 6 6 5 6 6 6 6 6 6 6 5 5 3 3 3 4 5 5 5 5 6 6 5 5 4 4 4 5 5 5 4 4 3 3
2 3 5 6 6 4 2 4 6 6 4 5 6 6 5 5 6 7 7 6 7 6 5 6 6 6 5 4 3 4 4 4 4 4 6 6 5 6 5 4 4 4 5 5 4 4 3 2 2
1 1 3 5 4 4 3 7 7 3 5 5 5 5 6 4 4 4 5 5 5 6 6 5 6 6 5 4 3 3 4 4 3 4 5 5 5 5 5 4 4 4 4 4 3 3 2 2 1
0 3 5 4 4 2 4 6 6 3 5 6 6 6 5 4 3 3 4 5 5 6 6 5 6 6 5 4 3 3 4 4 3 3 3 4 5 5 5 4 4 5 4 3 2 1 2 2 2
4 4 4 5 3 2 3 6 6 5 4 6 6 5 5 5 5 4 4 4 5 5 5 6 5 6 5 4 3 2 3 2 3 3 3 4 4 5 4 3 3 4 3 2 2 1 1 2 2
3 3 5 6 3 2 5 7 8 6 3 5 5 5 5 5 4 4 4 4 4 4 4 5 5 6 5 4 3 3 3 3 2 2 2 3 3 4 4 3 2 3 3 3 3 2 1 1 1
4 4 5 4 3 2 4 7 7 6 5 5 6 6 6 4 3 3 3 3 4 4 4 4 5 5 5 5 4 3 3 2 2 2 2 2 3 3 4 4 3 2 2 3 3 2 2 1 1
5 5 5 4 5 2 1 6 6 5 3 2 3 4 4 5 6 5 4 4 4 4 4 4 4 5 4 4 4 3 2 1 1 1 1 2 3 3 3 4 3 3 3 4 4 4 4 3 2
5 4 4 4 2 3 2 4 7 5 4 3 3 3 3 4 5 5 5 4 4 5 4 4 4 4 4 4 5 6 4 3 3 3 2 1 2 3 3 3 3 3 3 4 4 3 3 4 3
4 3 4 4 2 3 3 3 6 3 5 6 5 4 4 4 5 6 6 5 4 3 4 4 3 4 4 4 5 6 4 3 2 2 2 1 1 1 2 3 3 2 2 3 4 3 3 3 3
2 2 2 2 1 4 6 5 6 5 7 5 4 4 4 4 4 4 4 3 3 2 3 3 3 3 3 4 4 5 6 4 3 3 3 2 1 1 1 2 2 2 2 3 4 4 4 4 3
2 3 2 2 1 6 4 4 7 5 5 5 6 6 5 4 4 3 3 3 3 3 3 3 3 3 3 4 4 5 6 6 6 5 4 3 2 2 3 2 2 3 3 3 3 3 4 4 4
3 4 4 3 4 4 3 5 6 4 3 2 3 4 4 4 4 4 4 4 4 4 3 3 4 3 3 3 4 4 4 4 4 4 4 4 4 3 3 3 3 3 3 3 2 2 3 3 4
3 3 3 2 1 2 4 5 6 3 3 2 2 2 3 4 4 4 3 3 3 3 4 4 4 3 3 3 3 3 3 3 3 3 3 3 3 2 2 2 2 2 3 3 3 3 3 3 3
2 3 3 3 2 3 4 4 4 5 5 4 3 3 3 3 3 3 3 2 2 2 2 2 3 4 3 3 3 3 2 2 3 2 2 2 3 2 3 2 3 2 2 2 2 2 2 2 2
1 2 2 3 3 3 3 6 4 6 5 5 4 3 3 2 3 2 2 1 1 1 1 2 2 3 3 3 3 3 2 2 2 2 2 2 2 2 3 3 3 3 3 3 3 3 3 3 3
4 4 5 3 4 3 3 7 3 3 4 4 4 3 2 1 1 1 0 1 1 0 1 1 2 3 3 3 3 3 2 2 2 2 2 2 3 2 3 3 2 3 3 3 3 4 3 4 4
Wind_Direction
327 328 27 58 65 66 232 244 230 243 228 229 135 113 122 121 146 158 124 132 131 142 146 146 144 143 141 136 132 129 127 124 122 121 118 117 115 114 111 111 111 110 109 107 104 103 100 101 100
325 337 52 68 119 184 249 243 228 229 213 125 65 82 82 77 81 111 118 139 137 141 144 146 144 142 142 139 136 133 132 129 128 126 122 120 119 116 114 112 111 110 109 108 106 104 104 104 101
323 22 87 100 163 195 213 226 224 245 265 76 59 52 100 114 117 129 143 139 132 134 140 144 144 142 143 141 140 138 135 133 132 130 126 124 122 120 118 115 112 112 111 111 110 109 107 104 102
32 51 65 137 214 219 205 231 234 292 337 31 107 65 56 51 142 138 136 129 128 128 136 142 144 143 144 143 142 141 138 137 136 133 130 129 126 124 121 119 118 116 115 116 116 113 110 106 105
61 96 130 221 230 238 247 272 291 288 331 19 89 98 37 350 104 124 130 127 127 127 133 143 142 145 144 146 145 143 141 140 139 135 132 132 129 127 128 127 125 123 120 121 121 118 114 111 108
62 98 162 218 228 242 256 265 291 280 294 24 79 102 118 75 105 127 128 125 124 125 126 135 138 139 143 146 148 146 145 144 143 139 136 135 133 132 134 133 131 128 126 126 126 123 117 113 111
132 150 196 208 218 238 252 271 180 233 304 274 138 113 138 101 108 124 124 119 117 115 116 123 132 136 137 141 146 151 150 148 147 144 142 140 141 139 139 139 137 135 133 134 132 127 123 117 114
145 143 208 214 207 228 271 276 233 176 251 303 103 132 166 189 134 110 114 115 117 112 112 113 124 130 132 137 135 138 147 148 150 148 144 143 144 144 144 144 145 144 142 140 140 135 126 122 119
91 157 212 212 202 223 292 284 306 336 96 46 40 159 164 153 128 114 111 111 119 122 122 119 114 121 128 132 136 135 138 141 142 143 145 146 145 145 147 149 149 151 150 147 146 145 135 122 118
121 202 224 225 204 212 263 265 276 20 356 15 18 41 110 124 132 129 131 135 139 142 140 130 124 121 128 131 131 134 132 135 137 137 137 142 146 147 146 146 149 149 151 151 148 149 144 127 116
172 214 245 267 270 278 282 287 284 169 251 227 184 152 137 128 132 137 141 148 154 155 149 143 134 126 123 124 126 126 127 128 130 137 140 140 138 140 141 137 141 143 144 143 144 136 142 138 132
211 253 256 270 293 300 286 287 290 237 233 217 181 160 153 149 149 151 154 154 152 153 154 149 140 135 124 127 129 131 130 130 128 132 137 138 137 137 142 142 148 148 151 150 150 149 150 146 146
238 254 269 270 287 283 292 277 261 268 264 187 159 153 159 163 161 164 156 153 146 150 152 153 144 139 131 126 135 134 136 137 136 137 140 142 145 152 150 149 155 159 162 160 156 156 151 142 140
231 257 277 277 275 276 265 277 264 253 220 164 160 164 169 162 154 157 154 153 155 155 157 156 150 142 134 130 144 143 142 142 139 138 146 144 148 157 160 159 159 166 174 172 166 167 162 155 144
264 279 284 269 257 253 240 286 248 239 179 169 176 172 167 163 155 163 171 165 163 164 161 159 154 146 145 140 147 144 146 146 142 148 150 148 149 159 163 167 173 177 178 171 157 152 144 142 141
336 254 258 262 232 244 182 246 259 218 164 182 185 178 169 169 172 176 164 161 158 158 160 166 160 154 155 151 149 149 146 147 150 155 157 156 157 160 159 166 182 179 167 150 154 157 148 155 159
231 227 240 265 232 223 193 242 263 246 182 189 192 183 171 172 188 189 165 162 163 164 164 167 164 161 162 156 146 145 145 145 145 148 159 164 156 160 160 169 176 170 156 155 163 167 168 174 184
214 227 236 239 239 189 230 258 277 282 201 197 200 188 177 181 203 194 175 168 165 162 161 168 172 167 164 151 133 131 131 137 138 145 157 158 160 161 156 153 166 162 163 176 172 163 181 180 181
228 229 260 256 256 228 247 266 278 281 226 210 205 194 190 202 214 194 182 166 156 151 159 172 181 174 164 161 167 172 175 174 171 165 147 151 156 158 149 154 154 166 181 190 181 166 157 199 167
236 251 253 278 285 248 246 273 277 266 236 211 198 199 202 205 214 206 180 164 172 173 175 179 186 179 175 177 182 184 178 176 178 157 146 152 156 164 167 161 176 176 185 186 185 162 174 206 182
248 228 233 251 296 286 246 288 273 270 247 228 204 200 208 202 198 198 189 184 182 185 183 184 197 185 181 169 152 134 129 121 127 172 194 183 174 171 171 172 178 184 187 199 201 185 182 197 224
251 226 235 250 253 270 199 258 270 259 262 243 234 230 233 223 202 192 190 190 189 198 190 177 191 184 177 168 167 169 176 184 204 197 198 193 178 181 176 175 182 191 200 205 205 199 194 181 205
235 253 253 256 232 290 257 221 270 241 242 249 240 230 231 220 196 188 191 190 182 185 184 178 185 182 174 172 177 177 182 188 171 172 173 195 216 194 190 182 183 198 211 219 208 197 194 195 196
243 350 5 23 60 253 238 204 257 234 228 241 235 229 224 213 202 190 183 176 167 164 172 170 185 173 175 175 180 184 180 175 169 184 189 201 223 233 221 205 197 202 216 225 218 205 198 205 199
60 84 36 356 307 245 241 223 247 245 233 217 217 222 223 211 200 193 179 175 178 181 180 181 176 172 185 185 185 193 186 181 186 193 198 203 221 242 231 225 222 221 217 221 215 206 204 206 205
213 154 164 205 233 277 271 237 255 265 263 249 225 214 216 214 204 197 186 186 190 195 194 188 181 182 187 197 198 192 182 184 198 201 202 207 218 230 233 228 225 232 224 215 206 218 217 205 205
158 183 174 146 267 266 262 280 296 297 315 297 266 238 231 215 199 196 188 184 187 206 210 187 180 184 194 197 195 185 182 183 193 209 213 210 217 221 223 229 229 228 220 216 206 219 220 206 206
150 150 108 134 195 259 279 262 257 270 266 274 268 250 240 221 207 200 193 196 208 219 220 194 189 193 193 188 192 189 187 191 189 186 206 222 218 214 215 226 228 226 219 208 205 215 219 206 220
156 144 139 161 191 196 254 266 233 230 231 229 247 262 258 236 209 201 192 169 175 207 186 194 202 195 193 188 190 187 193 190 187 193 214 229 227 210 214 221 222 219 213 202 201 207 209 209 224
186 188 169 186 235 214 212 266 282 250 240 214 229 258 274 253 203 171 153 90 71 16 207 200 207 199 203 189 181 192 196 186 195 217 230 229 227 219 218 218 218 221 214 206 203 207 211 207 213
Height
1518 1519 1520 1522 1525 1535 1534 1526 1517 1513 1511 1509 1509 1509 1512 1515 1519 1525 1521 1521 1523 1525 1528 1531 1533 1535 1536 1537 1539 1540 1541 1542 1543 1544 1544 1545 1545 1546 1546 1547 1547 1548 1548 1548 1548 1548 1548 1549 1549
1517 1519 1521 1521 1530 1539 1533 1521 1515 1510 1508 1508 1509 1510 1512 1514 1516 1517 1518 1521 1524 1526 1528 1530 1533 1535 1536 1537 1539 1540 1541 1542 1543 1544 1545 1546 1546 1547 1547 1548 1548 1549 1549 1549 1549 1549 1549 1550 1550
1517 1518 1520 1522 1529 1530 1524 1514 1510 1508 1508 1508 1510 1511 1513 1515 1516 1517 1518 1521 1524 1526 1528 1531 1533 1534 1536 1538 1539 1540 1541 1542 1544 1545 1545 1546 1547 1547 1548 1548 1549 1549 1550 1550 1550 1550 1550 1551 1551
1516 1518 1520 1524 1524 1518 1514 1510 1509 1508 1508 1509 1510 1513 1515 1517 1517 1517 1519 1521 1524 1526 1528 1531 1533 1534 1536 1538 1539 1540 1542 1543 1544 1545 1546 1547 1547 1548 1548 1549 1549 1550 1550 1551 1551 1551 1551 1551 1552
1515 1516 1522 1524 1519 1514 1510 1509 1508 1508 1509 1509 1510 1513 1515 1517 1517 1518 1519 1521 1523 1526 1528 1531 1533 1534 1536 1537 1539 1540 1542 1543 1544 1545 1546 1547 1547 1548 1548 1549 1549 1550 1550 1551 1551 1552 1552 1552 1552
1514 1515 1524 1522 1516 1512 1509 1509 1509 1509 1509 1510 1511 1513 1516 1517 1517 1518 1520 1521 1524 1525 1528 1530 1532 1534 1536 1537 1539 1540 1541 1543 1544 1545 1546 1546 1547 1548 1548 1549 1550 1550 1551 1551 1552 1552 1552 1553 1553
1514 1516 1518 1517 1515 1512 1509 1508 1509 1509 1509 1510 1510 1513 1515 1516 1517 1519 1520 1521 1524 1526 1528 1530 1532 1534 1535 1537 1538 1540 1541 1542 1543 1544 1545 1546 1547 1548 1548 1549 1550 1550 1551 1551 1552 1552 1553 1553 1553
1512 1515 1515 1515 1514 1511 1508 1508 1508 1509 1509 1510 1510 1511 1514 1516 1517 1518 1520 1521 1523 1525 1527 1529 1531 1533 1534 1536 1537 1539 1540 1542 1543 1544 1545 1546 1546 1547 1548 1549 1549 1550 1551 1551 1551 1552 1553 1553 1553
1511 1517 1515 1512 1511 1509 1507 1508 1508 1508 1508 1508 1509 1509 1511 1514 1515 1517 1519 1521 1522 1525 1527 1528 1530 1532 1533 1535 1536 1538 1539 1541 1542 1543 1544 1545 1546 1546 1547 1548 1549 1550 1550 1551 1551 1552 1552 1553 1553
1511 1516 1510 1508 1507 1507 1507 1507 1507 1507 1507 1507 1507 1508 1510 1512 1513 1514 1515 1518 1520 1522 1525 1527 1529 1531 1532 1534 1535 1536 1538 1539 1541 1542 1543 1544 1545 1546 1546 1547 1548 1549 1550 1550 1551 1552 1552 1553 1553
1510 1511 1508 1507 1506 1506 1506 1506 1507 1506 1507 1506 1506 1506 1508 1510 1511 1512 1514 1516 1519 1521 1523 1525 1527 1529 1531 1532 1534 1535 1536 1537 1539 1540 1541 1542 1543 1544 1545 1546 1547 1548 1549 1549 1550 1551 1552 1552 1552
1510 1508 1508 1507 1506 1505 1506 1505 1505 1504 1504 1504 1504 1505 1506 1507 1509 1510 1512 1515 1518 1520 1522 1523 1526 1528 1530 1531 1533 1534 1534 1535 1537 1538 1539 1540 1542 1543 1544 1545 1545 1546 1547 1548 1549 1550 1550 1551 1551
1508 1508 1507 1506 1505 1505 1505 1504 1504 1502 1502 1502 1503 1503 1503 1505 1507 1509 1511 1513 1515 1518 1520 1522 1524 1526 1528 1529 1531 1532 1533 1534 1535 1536 1537 1539 1540 1541 1542 1543 1544 1545 1546 1547 1547 1548 1549 1549 1550
1507 1507 1506 1505 1504 1503 1503 1502 1502 1500 1500 1500 1500 1501 1502 1503 1504 1507 1509 1510 1513 1515 1517 1520 1522 1524 1526 1527 1529 1530 1531 1533 1534 1534 1536 1537 1538 1539 1540 1541 1542 1543 1544 1545 1546 1547 1547 1547 1548
1506 1507 1505 1503 1502 1502 1502 1502 1499 1497 1498 1498 1498 1499 1501 1501 1503 1504 1506 1508 1510 1513 1515 1518 1520 1522 1523 1525 1527 1528 1530 1531 1532 1533 1534 1535 1536 1537 1538 1539 1540 1541 1542 1543 1544 1545 1545 1546 1546
1507 1508 1508 1502 1501 1500 1504 1503 1496 1496 1496 1496 1497 1497 1499 1500 1501 1503 1504 1506 1508 1510 1513 1515 1517 1519 1521 1523 1524 1526 1527 1528 1530 1531 1531 1533 1534 1535 1536 1537 1538 1539 1540 1541 1542 1543 1543 1544 1544
1509 1510 1507 1503 1499 1499 1501 1500 1495 1494 1494 1494 1495 1495 1496 1498 1500 1501 1502 1504 1506 1508 1510 1512 1514 1516 1518 1520 1522 1523 1525 1526 1527 1528 1529 1530 1531 1532 1533 1535 1536 1537 1538 1538 1540 1540 1541 1542 1542
1510 1508 1505 1503 1499 1499 1500 1498 1494 1492 1492 1492 1492 1493 1494 1495 1496 1497 1500 1502 1504 1506 1507 1509 1511 1513 1515 1517 1519 1520 1522 1523 1524 1526 1527 1528 1528 1530 1531 1532 1533 1534 1535 1536 1537 1538 1539 1539 1540
1506 1506 1505 1501 1497 1499 1499 1497 1493 1491 1490 1490 1490 1490 1491 1492 1493 1494 1497 1499 1501 1502 1504 1506 1508 1509 1511 1513 1514 1516 1517 1519 1521 1522 1524 1525 1526 1527 1528 1529 1530 1531 1532 1533 1534 1535 1536 1536 1537
1506 1506 1504 1499 1497 1498 1497 1496 1492 1489 1487 1487 1487 1487 1488 1489 1490 1491 1493 1495 1497 1499 1501 1503 1504 1506 1507 1509 1511 1513 1514 1516 1517 1519 1520 1521 1523 1524 1525 1525 1526 1527 1528 1530 1531 1531 1532 1533 1534
1504 1505 1503 1501 1498 1497 1497 1495 1491 1487 1486 1485 1485 1485 1485 1486 1486 1488 1490 1492 1494 1495 1497 1499 1501 1502 1504 1506 1508 1509 1511 1512 1514 1515 1516 1518 1519 1520 1521 1522 1523 1524 1525 1525 1526 1528 1528 1529 1530
1503 1500 1500 1500 1502 1503 1499 1501 1491 1487 1484 1483 1483 1482 1482 1483 1483 1484 1487 1489 1491 1493 1495 1496 1498 1499 1501 1502 1504 1505 1505 1506 1508 1510 1512 1514 1515 1517 1518 1518 1519 1520 1521 1521 1522 1523 1524 1525 1526
1501 1498 1499 1499 1502 1504 1500 1503 1492 1485 1484 1481 1480 1480 1480 1480 1481 1482 1484 1486 1488 1490 1492 1493 1495 1496 1497 1499 1501 1502 1503 1504 1505 1507 1509 1510 1511 1512 1514 1514 1515 1516 1516 1517 1518 1519 1520 1521 1522
1499 1500 1500 1503 1506 1506 1498 1501 1492 1485 1480 1478 1478 1478 1478 1478 1478 1480 1481 1484 1486 1488 1489 1491 1492 1492 1494 1495 1497 1498 1499 1500 1501 1502 1504 1505 1506 1508 1509 1510 1511 1512 1512 1513 1514 1515 1516 1517 1518
1501 1506 1512 1511 1514 1505 1494 1494 1487 1478 1476 1475 1476 1475 1475 1476 1476 1477 1479 1480 1482 1484 1486 1488 1489 1489 1490 1492 1494 1495 1495 1497 1497 1498 1499 1500 1502 1502 1504 1505 1507 1508 1508 1509 1509 1510 1511 1512 1513
1503 1506 1513 1512 1509 1502 1495 1491 1483 1476 1474 1473 1473 1473 1473 1473 1474 1475 1477 1479 1480 1481 1483 1484 1486 1486 1488 1489 1491 1492 1492 1493 1494 1495 1495 1496 1497 1498 1499 1500 1502 1502 1503 1504 1504 1504 1505 1507 1508
1503 1507 1506 1511 1510 1507 1498 1490 1480 1474 1473 1472 1472 1472 1471 1471 1472 1473 1475 1476 1478 1479 1481 1482 1483 1484 1485 1486 1488 1488 1489 1490 1490 1491 1491 1492 1493 1494 1495 1496 1496 1497 1498 1498 1499 1500 1500 1501 1502
1501 1503 1509 1512 1509 1503 1495 1491 1484 1477 1474 1472 1471 1470 1470 1470 1470 1471 1473 1474 1475 1477 1478 1479 1480 1481 1482 1483 1484 1485 1486 1487 1487 1488 1488 1488 1488 1489 1490 1490 1491 1492 1493 1494 1494 1495 1495 1496 1497
1503 1505 1507 1511 1510 1506 1499 1489 1476 1474 1472 1472 1471 1470 1469 1468 1469 1470 1471 1472 1473 1475 1476 1477 1478 1478 1479 1480 1481 1482 1482 1483 1483 1484 1484 1484 1484 1484 1485 1485 1486 1487 1487 1488 1489 1490 1491 1491 1492
1500 1502 1506 1508 1508 1507 1503 1489 1471 1471 1470 1470 1470 1469 1469 1468 1468 1469 1469 1470 1471 1472 1473 1474 1475 1476 1477 1477 1478 1479 1479 1479 1479 1480 1480 1480 1480 1480 1480 1480 1481 1481 1482 1483 1484 1485 1486 1487 1487